Lid_Strength_Index
-0 -0 -0 -0 -1 -1 -1 -1 -1 -1 -1 -1 -1 -1 -0 -0 -1 -0 -0 0 0 1 0 1 1 0 1 1 1 1 1 2 3 2 1 -0 -0 -0 -1 -1 -1 -2 -1
-1 -0 -0 -0 -1 -0 -0 -0 -1 -0 -1 -1 -1 -0 -0 -0 -0 0 0 0 1 1 1 1 1 1 1 1 1 1 1 2 2 3 1 1 0 -0 -0 -0 -0 -1 -1
-1 -0 -0 -0 -1 -0 -0 -1 -1 -1 -0 -1 -0 0 -0 0 0 0 0 0 1 1 1 1 1 1 1 1 1 1 1 1 1 2 2 1 1 0 0 -0 -0 -0 -1
-0 0 0 -0 -0 -0 -1 -1 -0 -1 -0 -0 -0 -0 -0 -0 0 0 0 1 1 1 0 0 1 1 1 1 1 1 1 1 2 2 2 2 1 1 1 1 2 0 0
0 0 0 -0 -1 -0 -0 -0 -0 -0 -0 -1 -0 -0 -0 0 1 2 2 1 1 1 1 0 0 0 1 1 1 1 1 2 2 2 2 2 2 2 2 2 2 1 0
0 1 -0 -0 -0 -0 -0 -0 -0 -0 -0 -0 0 0 0 1 3 3 1 2 1 1 1 1 0 1 1 3 3 3 1 1 2 2 2 3 2 2 1 2 2 2 3
0 0 0 -0 0 0 0 0 0 0 0 0 0 0 1 2 4 4 4 2 2 1 1 1 1 1 1 0 3 4 4 3 2 1 2 2 2 1 1 2 2 2 2
1 0 -0 -0 0 0 0 0 0 0 0 0 0 0 1 3 5 6 5 5 1 1 1 1 1 1 0 1 1 1 1 0 0 1 1 0 0 0 1 1 1 1 1
1 0 0 0 1 0 1 0 0 1 0 0 0 0 2 4 6 6 6 6 3 2 1 0 0 1 2 4 1 1 1 1 2 3 2 3 3 4 2 1 2 3 3
1 0 -0 -0 0 1 0 0 1 0 0 0 0 1 4 4 6 7 8 7 3 2 1 1 3 1 5 6 1 1 3 2 1 1 0 1 2 1 3 1 1 3 3
0 -0 -0 -0 -0 -0 0 0 0 0 0 0 1 1 4 4 4 7 9 6 3 2 2 2 1 6 8 9 6 1 2 1 1 1 1 1 0 0 1 0 0 1 2
0 0 0 -0 0 0 0 0 -0 -0 1 1 1 2 3 3 5 6 8 7 6 2 2 2 2 7 8 8 7 6 7 6 1 1 2 2 2 1 0 0 0 -0 -0
0 1 0 -0 -0 -0 0 1 1 0 1 1 2 2 4 4 3 7 7 6 5 3 4 6 7 9 8 7 7 7 7 2 2 2 2 2 2 1 1 0 0 -0 -0
1 1 0 0 0 0 0 0 1 1 2 2 2 2 3 4 4 8 7 4 4 3 3 3 5 5 6 5 4 4 4 4 3 3 2 2 1 1 2 1 2 1 2
1 1 0 0 0 0 -0 0 1 1 3 2 2 3 3 4 6 11 11 9 6 6 4 2 3 4 5 5 4 3 4 4 4 4 4 4 4 4 4 3 3 2 3
1 1 1 1 1 0 1 0 6 7 9 10 9 8 5 8 12 11 10 11 11 11 2 3 3 2 3 3 3 3 3 4 4 4 4 4 5 5 5 4 4 4 5
1 1 1 1 1 0 0 1 1 4 8 9 9 9 10 11 10 11 9 9 9 5 2 2 2 2 2 1 1 2 4 4 3 3 3 4 4 4 5 5 4 5 5
0 3 1 1 1 -0 1 2 1 1 2 2 6 5 8 9 9 9 9 5 2 2 1 2 2 2 1 1 1 1 1 1 1 1 3 3 3 3 3 3 3 5 5
1 1 0 -0 -0 -0 -0 1 0 1 2 2 2 2 3 6 6 6 6 2 3 2 2 2 1 1 1 1 1 1 1 1 1 1 1 1 1 3 3 3 4 7 6
0 2 2 0 1 1 0 -0 1 1 1 1 1 1 0 1 1 2 2 2 3 3 3 3 1 1 3 1 0 0 1 1 1 1 1 1 1 1 1 1 1 1 2
1 1 1 1 -0 0 -0 1 1 1 2 1 2 2 8 1 2 3 3 3 3 3 3 3 3 2 1 1 3 4 4 3 3 2 3 4 3 1 1 1 1 1 1
1 0 0 0 1 1 1 1 1 1 1 1 1 1 6 1 2 3 3 3 3 3 3 3 3 3 3 3 4 3 3 3 3 5 5 5 4 5 5 5 4 2 1
2 2 2 2 1 2 1 1 1 0 1 0 0 2 3 3 4 4 4 4 3 3 3 3 3 3 3 2 3 4 5 4 4 3 3 3 3 3 3 3 3 4 4
4 3 2 1 1 2 2 1 2 5 2 3 3 3 4 4 4 4 4 4 4 4 3 3 3 3 3 2 2 3 5 6 4 4 4 3 3 3 3 3 4 4 4
4 3 2 2 3 3 3 3 3 3 3 4 4 4 4 4 4 4 4 4 4 4 4 4 4 4 4 3 4 5 12 15 9 12 5 4 3 3 4 4 3 4 4
4 4 4 4 4 5 5 4 3 4 5 5 5 5 5 4 4 4 4 4 4 4 4 4 4 4 3 4 7 12 14 14 11 14 9 5 5 5 5 5 5 5 5